Find Starlink 30164

NORAD ID: 57500 Int'l Des: 2023-113 Owner: SPXS Country: US Constellation: starlink operational
LEOCIRCULAR

Current View

Loading 3D Globe...

About Starlink 30164

Starlink 30164 (NORAD 57500) is a starlink constellation satellite (v2 mini) launched Aug 7, 2023 by SPXS of US. It operates in LEO, CIRCULAR orbit with a mass of 730.00 kg.

About Starlink 30164

Description loading...

Upcoming Passes

Passes for default location (London). Set your location on the main map for personalized predictions.

Altitude History

Loading altitude history...

Two-Line Element Set

1 57500U 23113F 26175.19389070 -.00002470 00000-0 -80323-4 0 9990
2 57500 43.0026 134.5888 0001446 276.2595 83.8092 15.27553293159964
Epoch: Jun 24, 2026 • Age: 20 hours

Current Status

Altitude 488.7 km
Velocity 7.62 km/s
Sub-Earth Point -25.51°S, 172.78°E
Launch Date Aug 7, 2023
Age 2.8 years
Type internet

Technical Details

Classification Payload
Mass 730.00 kg
Dry Mass 700.00 kg
Total Mass 730.00 kg
Length 0.30 m
Diameter 4.10 m
Span 29.00 m
Shape Box + pan
Manufacturer SPXS
Bus Type Starlink V2M
Phase Status In Orbit
Owner/State SPXS/US

Most Searched